Time,TemperatureF,DewpointF,PressureIn,WindDirection,WindDirectionDegrees,WindSpeedMPH,WindSpeedGustMPH,Humidity,HourlyPrecipIn,Conditions,Clouds,dailyrainin,SoftwareType,DateUTC
2013-02-08 00:01:00,55.0,43.0,30.14,NNW,327,12.0,19.0,63,0.00,,,-99.99,,2013-02-08 06:01:00,
2013-02-08 00:11:00,55.0,43.0,30.14,NNW,327,12.0,19.0,63,0.00,,,-99.99,,2013-02-08 06:11:00,
2013-02-08 00:21:00,54.0,42.0,30.15,North,1,10.0,22.0,63,0.00,,,-99.99,,2013-02-08 06:21:00,
2013-02-08 00:31:00,54.0,42.0,30.15,North,1,10.0,22.0,63,0.00,,,-99.99,,2013-02-08 06:31:00,
2013-02-08 00:42:00,54.0,42.0,30.15,North,1,10.0,22.0,63,0.00,,,-99.99,,2013-02-08 06:42:00,
2013-02-08 00:52:00,53.0,42.0,30.15,North,4,12.0,18.0,65,0.00,,,-99.99,,2013-02-08 06:52:00,
2013-02-08 01:01:00,53.0,42.0,30.16,North,6,9.0,21.0,65,0.00,,,-99.99,,2013-02-08 07:01:00,
2013-02-08 01:11:00,53.0,42.0,30.16,North,6,9.0,21.0,65,0.00,,,-99.99,,2013-02-08 07:11:00,
2013-02-08 01:21:00,53.0,42.0,30.16,North,6,9.0,21.0,65,0.00,,,-99.99,,2013-02-08 07:21:00,
2013-02-08 01:31:00,52.0,41.0,30.16,NE,36,18.0,18.0,65,0.00,,,-99.99,,2013-02-08 07:31:00,
2013-02-08 01:42:00,52.0,41.0,30.17,NNW,344,7.0,19.0,65,0.00,,,-99.99,,2013-02-08 07:42:00,
2013-02-08 01:51:00,52.0,41.0,30.17,NNW,344,7.0,19.0,65,0.00,,,-99.99,,2013-02-08 07:51:00,
2013-02-08 02:01:00,51.0,40.0,30.17,NNE,15,9.0,16.0,66,0.00,,,-99.99,,2013-02-08 08:01:00,
2013-02-08 02:11:00,51.0,40.0,30.18,North,354,6.0,14.0,67,0.00,,,-99.99,,2013-02-08 08:11:00,
2013-02-08 02:21:00,51.0,40.0,30.18,North,354,6.0,14.0,67,0.00,,,-99.99,,2013-02-08 08:21:00,
2013-02-08 02:32:00,51.0,40.0,30.18,NNE,20,10.0,17.0,67,0.00,,,-99.99,,2013-02-08 08:32:00,
2013-02-08 02:41:00,51.0,40.0,30.18,NNE,20,10.0,17.0,67,0.00,,,-99.99,,2013-02-08 08:41:00,
2013-02-08 02:52:00,50.0,40.0,30.18,NNE,23,5.0,13.0,68,0.00,,,-99.99,,2013-02-08 08:52:00,
2013-02-08 03:03:00,50.0,40.0,30.18,NNE,26,10.0,15.0,69,0.00,,,-99.99,,2013-02-08 09:03:00,
2013-02-08 03:11:00,50.0,40.0,30.18,NNE,26,10.0,15.0,69,0.00,,,-99.99,,2013-02-08 09:11:00,
2013-02-08 03:21:00,49.0,39.0,30.19,NNE,33,12.0,14.0,68,0.00,,,-99.99,,2013-02-08 09:21:00,
2013-02-08 03:31:00,49.0,39.0,30.19,North,4,12.0,17.0,67,0.00,,,-99.99,,2013-02-08 09:31:00,
2013-02-08 03:42:00,49.0,39.0,30.19,North,4,12.0,17.0,67,0.00,,,-99.99,,2013-02-08 09:42:00,
2013-02-08 03:52:00,49.0,39.0,30.19,North,4,12.0,17.0,67,0.00,,,-99.99,,2013-02-08 09:52:00,
2013-02-08 04:01:00,48.0,38.0,30.19,NNE,16,4.0,15.0,68,0.00,,,-99.99,,2013-02-08 10:01:00,
2013-02-08 04:11:00,48.0,38.0,30.19,NNE,16,4.0,15.0,68,0.00,,,-99.99,,2013-02-08 10:11:00,
2013-02-08 04:22:00,48.0,38.0,30.19,NNE,16,4.0,15.0,68,0.00,,,-99.99,,2013-02-08 10:22:00,
2013-02-08 04:31:00,47.0,38.0,30.20,NNE,27,4.0,10.0,70,0.00,,,-99.99,,2013-02-08 10:31:00,
2013-02-08 04:42:00,47.0,38.0,30.20,NNE,27,4.0,10.0,70,0.00,,,-99.99,,2013-02-08 10:42:00,
2013-02-08 04:52:00,47.0,38.0,30.20,NE,51,1.0,8.0,70,0.00,,,-99.99,,2013-02-08 10:52:00,
2013-02-08 05:01:00,46.0,37.0,30.20,NNE,33,3.0,6.0,70,0.00,,,-99.99,,2013-02-08 11:01:00,
2013-02-08 05:11:00,46.0,37.0,30.20,NNE,33,3.0,6.0,70,0.00,,,-99.99,,2013-02-08 11:11:00,
2013-02-08 05:21:00,46.0,37.0,30.20,NNE,33,3.0,6.0,70,0.00,,,-99.99,,2013-02-08 11:21:00,
2013-02-08 05:32:00,46.0,36.0,30.21,NE,54,2.0,6.0,68,0.00,,,-99.99,,2013-02-08 11:32:00,
2013-02-08 05:42:00,46.0,36.0,30.21,NE,54,2.0,6.0,68,0.00,,,-99.99,,2013-02-08 11:42:00,
2013-02-08 05:52:00,46.0,36.0,30.22,NE,43,1.0,6.0,67,0.00,,,-99.99,,2013-02-08 11:52:00,
2013-02-08 06:02:00,46.0,36.0,30.22,NE,43,1.0,6.0,67,0.00,,,-99.99,,2013-02-08 12:02:00,
2013-02-08 06:11:00,46.0,36.0,30.22,NE,43,1.0,6.0,67,0.00,,,-99.99,,2013-02-08 12:11:00,
2013-02-08 06:22:00,45.0,34.0,30.24,ENE,68,2.0,6.0,66,0.00,,,-99.99,,2013-02-08 12:22:00,
2013-02-08 06:32:00,46.0,35.0,30.25,ENE,72,2.0,10.0,65,0.00,,,-99.99,,2013-02-08 12:32:00,
2013-02-08 06:42:00,46.0,35.0,30.25,ENE,72,2.0,10.0,65,0.00,,,-99.99,,2013-02-08 12:42:00,
2013-02-08 06:52:00,45.0,34.0,30.26,NE,51,2.0,8.0,65,0.00,,,-99.99,,2013-02-08 12:52:00,
2013-02-08 07:01:00,45.0,34.0,30.26,NE,51,2.0,8.0,65,0.00,,,-99.99,,2013-02-08 13:01:00,
2013-02-08 07:11:00,45.0,34.0,30.26,NE,51,2.0,8.0,65,0.00,,,-99.99,,2013-02-08 13:11:00,
2013-02-08 07:22:00,45.0,34.0,30.26,NNE,18,0.0,5.0,66,0.00,,,-99.99,,2013-02-08 13:22:00,
2013-02-08 07:32:00,44.0,34.0,30.26,East,79,2.0,6.0,67,0.00,,,-99.99,,2013-02-08 13:32:00,
2013-02-08 07:42:00,44.0,34.0,30.26,East,79,2.0,6.0,67,0.00,,,-99.99,,2013-02-08 13:42:00,
2013-02-08 07:51:00,44.0,34.0,30.27,NE,36,3.0,7.0,67,0.00,,,-99.99,,2013-02-08 13:51:00,
2013-02-08 08:02:00,44.0,34.0,30.27,North,1,5.0,6.0,67,0.00,,,-99.99,,2013-02-08 14:02:00,
2013-02-08 08:11:00,44.0,34.0,30.27,North,1,5.0,6.0,67,0.00,,,-99.99,,2013-02-08 14:11:00,
2013-02-08 08:21:00,44.0,34.0,30.28,NE,44,2.0,5.0,67,0.00,,,-99.99,,2013-02-08 14:21:00,
2013-02-08 08:32:00,45.0,34.0,30.29,NNW,345,1.0,5.0,66,0.00,,,-99.99,,2013-02-08 14:32:00,
2013-02-08 08:42:00,45.0,34.0,30.29,NNW,345,1.0,5.0,66,0.00,,,-99.99,,2013-02-08 14:42:00,
2013-02-08 08:52:00,46.0,34.0,30.29,North,358,2.0,6.0,63,0.00,,,-99.99,,2013-02-08 14:52:00,
2013-02-08 09:02:00,47.0,33.0,30.30,NNW,335,2.0,8.0,59,0.00,,,-99.99,,2013-02-08 15:02:00,
2013-02-08 09:11:00,47.0,33.0,30.30,NNW,335,2.0,8.0,59,0.00,,,-99.99,,2013-02-08 15:11:00,
2013-02-08 09:22:00,48.0,33.0,30.31,NE,37,3.0,6.0,55,0.00,,,-99.99,,2013-02-08 15:22:00,
2013-02-08 09:32:00,49.0,32.0,30.31,NNE,15,4.0,8.0,51,0.00,,,-99.99,,2013-02-08 15:32:00,
2013-02-08 09:42:00,49.0,32.0,30.31,NNE,15,4.0,8.0,51,0.00,,,-99.99,,2013-02-08 15:42:00,
2013-02-08 09:52:00,50.0,31.0,30.31,East,93,7.0,8.0,47,0.00,,,-99.99,,2013-02-08 15:52:00,
2013-02-08 10:01:00,52.0,31.0,30.32,ENE,62,2.0,11.0,44,0.00,,,-99.99,,2013-02-08 16:01:00,
2013-02-08 10:11:00,52.0,31.0,30.32,ENE,62,2.0,11.0,44,0.00,,,-99.99,,2013-02-08 16:11:00,
2013-02-08 10:21:00,53.0,30.0,30.32,NE,44,2.0,8.0,41,0.00,,,-99.99,,2013-02-08 16:21:00,
2013-02-08 10:32:00,53.0,29.0,30.31,ESE,108,9.0,10.0,40,0.00,,,-99.99,,2013-02-08 16:32:00,
2013-02-08 10:42:00,53.0,29.0,30.31,ESE,108,9.0,10.0,40,0.00,,,-99.99,,2013-02-08 16:42:00,
2013-02-08 10:52:00,53.0,29.0,30.31,ESE,108,9.0,10.0,40,0.00,,,-99.99,,2013-02-08 16:52:00,
2013-02-08 11:03:00,53.0,29.0,30.31,ESE,108,9.0,10.0,40,0.00,,,-99.99,,2013-02-08 17:03:00,
2013-02-08 11:12:00,53.0,29.0,30.31,ESE,108,9.0,10.0,40,0.00,,,-99.99,,2013-02-08 17:12:00,
2013-02-08 11:22:00,53.0,29.0,30.31,ESE,108,9.0,10.0,40,0.00,,,-99.99,,2013-02-08 17:22:00,
2013-02-08 11:33:00,56.0,29.0,30.30,NNE,26,3.0,11.0,36,0.00,,,-99.99,,2013-02-08 17:33:00,
2013-02-08 11:42:00,56.0,29.0,30.30,NNE,26,3.0,11.0,36,0.00,,,-99.99,,2013-02-08 17:42:00,
2013-02-08 11:53:00,57.0,28.0,30.30,NE,41,3.0,12.0,33,0.00,,,-99.99,,2013-02-08 17:53:00,
2013-02-08 12:02:00,58.0,28.0,30.29,NE,40,3.0,12.0,31,0.00,,,-99.99,,2013-02-08 18:02:00,
2013-02-08 12:12:00,58.0,28.0,30.29,NE,40,3.0,12.0,31,0.00,,,-99.99,,2013-02-08 18:12:00,
2013-02-08 12:24:00,58.0,28.0,30.29,NE,40,3.0,12.0,31,0.00,,,-99.99,,2013-02-08 18:24:00,
2013-02-08 12:34:00,59.0,27.0,30.28,ENE,70,6.0,10.0,29,0.00,,,-99.99,,2013-02-08 18:34:00,
2013-02-08 12:43:00,59.0,27.0,30.28,ENE,70,6.0,10.0,29,0.00,,,-99.99,,2013-02-08 18:43:00,
2013-02-08 12:52:00,61.0,24.0,30.27,East,82,13.0,13.0,24,0.00,,,-99.99,,2013-02-08 18:52:00,
2013-02-08 13:02:00,61.0,26.0,30.26,ENE,68,5.0,12.0,26,0.00,,,-99.99,,2013-02-08 19:02:00,
2013-02-08 13:11:00,61.0,26.0,30.26,ENE,68,5.0,12.0,26,0.00,,,-99.99,,2013-02-08 19:11:00,
2013-02-08 13:22:00,62.0,25.0,30.24,ENE,72,4.0,10.0,24,0.00,,,-99.99,,2013-02-08 19:22:00,
2013-02-08 13:32:00,62.0,25.0,30.24,ENE,72,4.0,10.0,24,0.00,,,-99.99,,2013-02-08 19:32:00,
2013-02-08 13:42:00,62.0,25.0,30.24,ENE,72,4.0,10.0,24,0.00,,,-99.99,,2013-02-08 19:42:00,
2013-02-08 13:52:00,62.0,25.0,30.24,ENE,72,4.0,10.0,24,0.00,,,-99.99,,2013-02-08 19:52:00,
2013-02-08 14:01:00,62.0,23.0,30.21,NE,41,7.0,14.0,22,0.00,,,-99.99,,2013-02-08 20:01:00,
2013-02-08 14:11:00,62.0,23.0,30.21,NE,41,7.0,14.0,22,0.00,,,-99.99,,2013-02-08 20:11:00,
2013-02-08 14:22:00,63.0,22.0,30.21,ENE,63,4.0,13.0,21,0.00,,,-99.99,,2013-02-08 20:22:00,
2013-02-08 14:32:00,63.0,21.0,30.20,ESE,110,10.0,12.0,20,0.00,,,-99.99,,2013-02-08 20:32:00,
2013-02-08 14:41:00,63.0,21.0,30.20,ESE,110,10.0,12.0,20,0.00,,,-99.99,,2013-02-08 20:41:00,
2013-02-08 14:52:00,63.0,21.0,30.20,ESE,110,10.0,12.0,20,0.00,,,-99.99,,2013-02-08 20:52:00,
2013-02-08 15:02:00,63.0,21.0,30.20,ESE,110,10.0,12.0,20,0.00,,,-99.99,,2013-02-08 21:02:00,
2013-02-08 15:11:00,63.0,21.0,30.20,ESE,110,10.0,12.0,20,0.00,,,-99.99,,2013-02-08 21:11:00,
2013-02-08 15:22:00,64.0,22.0,30.18,SE,137,4.0,12.0,20,0.00,,,-99.99,,2013-02-08 21:22:00,
2013-02-08 15:33:00,65.0,24.0,30.17,SE,134,5.0,11.0,21,0.00,,,-99.99,,2013-02-08 21:33:00,
2013-02-08 15:42:00,65.0,24.0,30.17,SE,134,5.0,11.0,21,0.00,,,-99.99,,2013-02-08 21:42:00,
2013-02-08 15:52:00,65.0,23.0,30.16,East,101,10.0,10.0,20,0.00,,,-99.99,,2013-02-08 21:52:00,
2013-02-08 16:01:00,65.0,23.0,30.16,East,101,10.0,10.0,20,0.00,,,-99.99,,2013-02-08 22:01:00,
2013-02-08 16:11:00,65.0,23.0,30.16,East,101,10.0,10.0,20,0.00,,,-99.99,,2013-02-08 22:11:00,
2013-02-08 16:21:00,65.0,24.0,30.16,SE,142,4.0,13.0,21,0.00,,,-99.99,,2013-02-08 22:21:00,
2013-02-08 16:32:00,65.0,23.0,30.15,ESE,116,7.0,11.0,20,0.00,,,-99.99,,2013-02-08 22:32:00,
2013-02-08 16:42:00,65.0,23.0,30.15,ESE,116,7.0,11.0,20,0.00,,,-99.99,,2013-02-08 22:42:00,
2013-02-08 16:51:00,65.0,23.0,30.15,ESE,116,7.0,11.0,20,0.00,,,-99.99,,2013-02-08 22:51:00,
2013-02-08 17:01:00,64.0,23.0,30.15,ESE,106,9.0,12.0,21,0.00,,,-99.99,,2013-02-08 23:01:00,
2013-02-08 17:11:00,64.0,23.0,30.15,ESE,106,9.0,12.0,21,0.00,,,-99.99,,2013-02-08 23:11:00,
2013-02-08 17:21:00,64.0,23.0,30.15,SSE,147,4.0,12.0,21,0.00,,,-99.99,,2013-02-08 23:21:00,
2013-02-08 17:32:00,64.0,22.0,30.15,ESE,113,6.0,10.0,20,0.00,,,-99.99,,2013-02-08 23:32:00,
2013-02-08 17:41:00,64.0,22.0,30.15,ESE,113,6.0,10.0,20,0.00,,,-99.99,,2013-02-08 23:41:00,
2013-02-08 17:52:00,64.0,24.0,30.14,SE,130,4.0,11.0,22,0.00,,,-99.99,,2013-02-08 23:52:00,
2013-02-08 18:02:00,63.0,22.0,30.14,East,101,7.0,9.0,21,0.00,,,-99.99,,2013-02-09 00:02:00,
2013-02-08 18:11:00,63.0,22.0,30.14,East,101,7.0,9.0,21,0.00,,,-99.99,,2013-02-09 00:11:00,
2013-02-08 18:21:00,63.0,25.0,30.14,ESE,108,7.0,7.0,23,0.00,,,-99.99,,2013-02-09 00:21:00,
2013-02-08 18:32:00,63.0,25.0,30.14,ESE,108,7.0,7.0,23,0.00,,,-99.99,,2013-02-09 00:32:00,
2013-02-08 18:42:00,63.0,25.0,30.14,ESE,108,7.0,7.0,23,0.00,,,-99.99,,2013-02-09 00:42:00,
2013-02-08 18:52:00,61.0,25.0,30.14,ESE,103,4.0,7.0,25,0.00,,,-99.99,,2013-02-09 00:52:00,
2013-02-08 19:01:00,60.0,25.0,30.15,ESE,106,2.0,7.0,26,0.00,,,-99.99,,2013-02-09 01:01:00,
2013-02-08 19:11:00,60.0,25.0,30.15,ESE,106,2.0,7.0,26,0.00,,,-99.99,,2013-02-09 01:11:00,
2013-02-08 19:21:00,59.0,24.0,30.14,East,94,5.0,6.0,26,0.00,,,-99.99,,2013-02-09 01:21:00,
2013-02-08 19:32:00,58.0,24.0,30.14,East,101,2.0,6.0,27,0.00,,,-99.99,,2013-02-09 01:32:00,
2013-02-08 19:41:00,58.0,24.0,30.14,East,101,2.0,6.0,27,0.00,,,-99.99,,2013-02-09 01:41:00,
2013-02-08 19:52:00,58.0,24.0,30.14,East,84,5.0,5.0,27,0.00,,,-99.99,,2013-02-09 01:52:00,
2013-02-08 20:01:00,58.0,24.0,30.14,ESE,111,4.0,9.0,27,0.00,,,-99.99,,2013-02-09 02:01:00,
2013-02-08 20:11:00,57.0,24.0,30.13,East,89,5.0,9.0,28,0.00,,,-99.99,,2013-02-09 02:11:00,
2013-02-08 20:21:00,57.0,24.0,30.13,East,89,5.0,9.0,28,0.00,,,-99.99,,2013-02-09 02:21:00,
2013-02-08 20:32:00,56.0,25.0,30.14,ESE,107,4.0,8.0,30,0.00,,,-99.99,,2013-02-09 02:32:00,
2013-02-08 20:41:00,56.0,25.0,30.14,ESE,107,4.0,8.0,30,0.00,,,-99.99,,2013-02-09 02:41:00,
2013-02-08 20:52:00,55.0,24.0,30.15,ESE,107,4.0,8.0,30,0.00,,,-99.99,,2013-02-09 02:52:00,
2013-02-08 21:01:00,55.0,24.0,30.15,ESE,107,4.0,8.0,30,0.00,,,-99.99,,2013-02-09 03:01:00,
2013-02-08 21:11:00,55.0,24.0,30.15,ESE,107,4.0,8.0,30,0.00,,,-99.99,,2013-02-09 03:11:00,
2013-02-08 21:21:00,55.0,25.0,30.15,East,97,4.0,7.0,31,0.00,,,-99.99,,2013-02-09 03:21:00,
2013-02-08 21:32:00,54.0,25.0,30.16,ESE,116,5.0,7.0,32,0.00,,,-99.99,,2013-02-09 03:32:00,
2013-02-08 21:42:00,54.0,25.0,30.16,ESE,116,5.0,7.0,32,0.00,,,-99.99,,2013-02-09 03:42:00,
2013-02-08 21:52:00,54.0,26.0,30.16,ESE,110,4.0,7.0,33,0.00,,,-99.99,,2013-02-09 03:52:00,
2013-02-08 22:02:00,54.0,26.0,30.16,ESE,119,3.0,6.0,33,0.00,,,-99.99,,2013-02-09 04:02:00,
2013-02-08 22:12:00,54.0,26.0,30.16,ESE,119,3.0,6.0,33,0.00,,,-99.99,,2013-02-09 04:12:00,
2013-02-08 22:23:00,54.0,26.0,30.16,ESE,119,3.0,6.0,33,0.00,,,-99.99,,2013-02-09 04:23:00,
2013-02-08 22:32:00,53.0,25.0,30.15,SE,129,3.0,8.0,34,0.00,,,-99.99,,2013-02-09 04:32:00,
2013-02-08 22:42:00,53.0,25.0,30.15,SE,129,3.0,8.0,34,0.00,,,-99.99,,2013-02-09 04:42:00,
2013-02-08 22:52:00,53.0,25.0,30.16,ESE,123,7.0,8.0,34,0.00,,,-99.99,,2013-02-09 04:52:00,
2013-02-08 23:02:00,52.0,25.0,30.16,ESE,113,2.0,7.0,35,0.00,,,-99.99,,2013-02-09 05:02:00,
2013-02-08 23:12:00,52.0,25.0,30.16,ESE,113,2.0,7.0,35,0.00,,,-99.99,,2013-02-09 05:12:00,
2013-02-08 23:22:00,52.0,27.0,30.15,SE,129,3.0,6.0,37,0.00,,,-99.99,,2013-02-09 05:22:00,
2013-02-08 23:31:00,52.0,27.0,30.14,ESE,111,6.0,7.0,38,0.00,,,-99.99,,2013-02-09 05:31:00,
2013-02-08 23:42:00,52.0,27.0,30.14,ESE,111,6.0,7.0,38,0.00,,,-99.99,,2013-02-09 05:42:00,
2013-02-08 23:52:00,52.0,27.0,30.14,SE,130,6.0,9.0,38,0.00,,,-99.99,,2013-02-09 05:52:00,